Hopkins, SC

6:40 PM EST on February 09, 2016 (GMT -0500)
McEntire Angs

Weather History for KMMT - January, 2012

Change the Weather History Date:

Tuesday, January 17, 2012

  Actual Average (KCUB) Record (KCUB)
Temperature  
Mean Temperature 54 °F 46 °F  
Max Temperature 66 °F 56 °F - ()
Min Temperature 41 °F 36 °F - ()
Degree Days  
Heating Degree Days 12 19  
Month to date heating degree days 335  
Since 1 July heating degree days 1235  
Cooling Degree Days 0 0  
Month to date cooling degree days 0  
Year to date cooling degree days 0  
Growing Degree Days 4 (Base 50)    
Moisture  
Dew Point 48 °F    
Average Humidity 76    
Maximum Humidity 94    
Minimum Humidity 58    
Precipitation  
Precipitation 0.19 in 0.10 in - ()
Month to date precipitation 1.83  
Year to date precipitation 1.83  
Sea Level Pressure  
Sea Level Pressure 30.18 in    
Wind  
Wind Speed 6 mph (SSW)    
Max Wind Speed 16 mph    
Max Gust Speed 20 mph    
Visibility 9 miles    
Events Rain    
T = Trace of Precipitation, MM = Missing Value Source: NWS Daily Summary

Daily Weather History Graph

Daily Weather History Graph

Search for Another Location

Airport or City:

Trip Planner

Search our weather history database for the weather conditions in past years. The results will help you decide how hot, cold, wet, or windy it might be!

Date:

Astronomy

Jan. 17, 2012 Rise Set
Actual Time 7:27 AM EST 5:38 PM EST
Civil Twilight 7:00 AM EST 6:05 PM EST
Nautical Twilight 6:30 AM EST 6:36 PM EST
Astronomical Twilight 6:00 AM EST 7:06 PM EST
Moon 1:47 AM EST (1/17) 12:30 PM EST (1/17)
Length of Visible Light 11h 04m
Length of Day
10h 10m
Waning Crescent, 35% of the Moon is Illuminated
Jan 17
Waning Crescent
Jan 23
New
Jan 30
First Quarter
Feb 7
Full
Feb 14
Last Quarter

Hourly Weather History & Observations

Time (EST) Temp. Windchill Dew Point Humidity Pressure Visibility Wind Dir Wind Speed Gust Speed Precip Events Conditions
12:55 AM 47.3 °F - 37.2 °F 68% 30.37 in 10.0 mi South 5.8 mph - N/A   Mostly Cloudy
1:55 AM 46.9 °F - 37.6 °F 70% 30.34 in 10.0 mi SSE 5.8 mph - N/A   Overcast
2:55 AM 46.9 °F - 38.1 °F 71% 30.33 in 10.0 mi Calm Calm - N/A   Mostly Cloudy
3:55 AM 42.3 °F - 36.7 °F 81% 30.31 in 10.0 mi Calm Calm - N/A   Scattered Clouds
4:55 AM 41.7 °F - 37.8 °F 86% 30.30 in 10.0 mi Calm Calm - N/A   Overcast
5:55 AM 46.0 °F 43.9 °F 40.5 °F 81% 30.30 in 10.0 mi South 4.6 mph - N/A   Overcast
6:07 AM 46.4 °F 45.2 °F 41.0 °F 81% 30.29 in 10.0 mi SSE 3.5 mph - N/A Rain Light Rain
6:18 AM 46.4 °F 44.3 °F 41.0 °F 81% 30.29 in 10.0 mi SSE 4.6 mph - N/A   Mostly Cloudy
6:38 AM 44.6 °F 41.4 °F 41.0 °F 87% 30.28 in 10.0 mi SSE 5.8 mph - N/A Rain Light Rain
6:55 AM 46.2 °F - 42.1 °F 85% 30.28 in 10.0 mi Calm Calm - 0.00 in Rain Light Rain
7:00 AM 46.4 °F 45.2 °F 41.0 °F 81% 30.27 in 10.0 mi ESE 3.5 mph - N/A   Overcast
7:55 AM 46.2 °F - 43.5 °F 90% 30.30 in 10.0 mi Calm Calm - 0.00 in   Mostly Cloudy
8:55 AM 50.4 °F - 45.1 °F 82% 30.29 in 10.0 mi SW 5.8 mph - N/A   Mostly Cloudy
9:55 AM 55.9 °F - 47.7 °F 74% 30.28 in 10.0 mi SSW 8.1 mph - N/A   Mostly Cloudy
10:17 AM 57.2 °F - 48.2 °F 72% 30.27 in 9.0 mi SSW 11.5 mph - N/A Rain Light Rain
10:28 AM 57.2 °F - 48.2 °F 72% 30.27 in 10.0 mi SSW 8.1 mph - N/A   Mostly Cloudy
10:55 AM 58.3 °F - 49.1 °F 71% 30.28 in 10.0 mi SW 9.2 mph - 0.00 in   Overcast
11:55 AM 60.8 °F - 49.5 °F 66% 30.25 in 10.0 mi SW 11.5 mph - N/A   Mostly Cloudy
12:55 PM 61.7 °F - 49.6 °F 65% 30.19 in 10.0 mi SW 12.7 mph 17.3 mph N/A   Overcast
2:55 PM 64.0 °F - 50.5 °F 61% 30.10 in 10.0 mi SSW 10.4 mph 19.6 mph N/A   Mostly Cloudy
3:55 PM 66.6 °F - 51.4 °F 58% 30.07 in 10.0 mi SSW 9.2 mph 19.6 mph N/A   Scattered Clouds
4:55 PM 66.0 °F - 51.6 °F 60% 30.07 in 10.0 mi SSW 9.2 mph - N/A   Scattered Clouds
5:55 PM 62.2 °F - 50.9 °F 66% 30.06 in 10.0 mi SSW 6.9 mph - N/A   Mostly Cloudy
6:55 PM 61.5 °F - 51.1 °F 69% 30.06 in 10.0 mi South 5.8 mph - N/A   Mostly Cloudy
7:55 PM 61.3 °F - 50.9 °F 69% 30.04 in 10.0 mi SSW 6.9 mph - N/A   Mostly Cloudy
8:55 PM 62.8 °F - 51.3 °F 66% 30.03 in 10.0 mi SSW 12.7 mph - N/A   Overcast
9:40 PM 64.4 °F - 51.8 °F 64% 30.03 in 7.0 mi SW 10.4 mph - N/A Rain Light Rain
9:43 PM 62.6 °F - 51.8 °F 68% 30.05 in 3.0 mi SW 9.2 mph - N/A Rain Light Rain
9:55 PM 60.6 °F - 53.8 °F 78% 30.04 in 3.0 mi SSW 9.2 mph - 0.08 in Rain Rain
10:55 PM 58.3 °F - 55.0 °F 89% 30.01 in 6.0 mi SSW 5.8 mph - 0.09 in Rain Light Rain
11:07 PM 57.2 °F - 55.4 °F 94% 30.04 in 10.0 mi WNW 16.1 mph - N/A Rain Light Rain
11:17 PM 57.2 °F - 55.4 °F 94% 30.03 in 10.0 mi West 9.2 mph - N/A Rain Light Rain
11:21 PM 59.0 °F - 55.4 °F 88% 30.04 in 10.0 mi West 10.4 mph - N/A Rain Light Rain
11:23 PM 59.0 °F - 55.4 °F 88% 30.03 in 10.0 mi West 9.2 mph - N/A Rain Light Rain
11:55 PM 57.7 °F - 56.1 °F 94% 30.01 in 10.0 mi Calm Calm - 0.02 in Rain Light Rain